Weather Service Report


470 
ASUS42 KRAH 211310
RWRRAH
NORTH CAROLINA WEATHER ROUNDUP
NATIONAL WEATHER SERVICE RALEIGH NC
800 AM EST SUN DEC 21 2014

NOTE: "FAIR" INDICATES FEW OR NO CLOUDS BELOW 12,000 FEET WITH NO
SIGNIFICANT WEATHER AND/OR OBSTRUCTIONS TO VISIBILITY.

NCZ001-053-055-056-065-067-211400-
WESTERN NORTH CAROLINA
  
CITY           SKY/WX    TMP DP  RH WIND       PRES   REMARKS
ASHEVILLE      CLOUDY    39  37  92 CALM      30.22R                  
JEFFERSON      CLOUDY    34  33  96 CALM      30.18S FOG              
MORGANTON      CLOUDY    40  37  91 CALM      30.30R                  
HICKORY        CLOUDY    41  36  82 CALM      30.25R HAZE             
RUTHERFORDTON  CLOUDY    40  40  99 CALM      30.26S FOG              
MOUNT AIRY     CLOUDY    38  35  86 CALM      30.28R                  
BOONE          CLOUDY    36  35  96 CALM      30.19S                  
$$
 
NCZ021-022-025-041-071-084-088-211400-
CENTRAL NORTH CAROLINA
  
CITY           SKY/WX    TMP DP  RH WIND       PRES   REMARKS
CHARLOTTE      CLOUDY    43  34  70 CALM      30.27R                  
GREENSBORO     CLOUDY    39  35  86 CALM      30.27R FOG              
WINSTON-SALEM  CLEAR     36  32  85 CALM      30.28R FOG              
RALEIGH-DURHAM CLOUDY    38  33  82 CALM      30.31R FOG              
FORT BRAGG     CLOUDY    39  35  84 NE5       30.29S                  
FAYETTEVILLE   MOCLDY    36  34  92 NE5       30.30R FOG     WCI  32  
BURLINGTON     CLOUDY    38  34  85 CALM      30.29R                  
LAURINBURG     CLOUDY    38  35  89 NE3       30.29R FOG              
$$
 
NCZ011-015-027-028-043-044-047-080-103-211400-
NORTHEASTERN NORTH CAROLINA
  
CITY           SKY/WX    TMP DP  RH WIND       PRES   REMARKS
ROCKY MT-WILSO PTCLDY    31  29  92 NE3       30.32R FOG              
GREENVILLE       N/A     30  30 100 CALM      30.32R FOG              
WASHINGTON     CLEAR     32  30  92 NE3       30.31R FOG              
ELIZABETH CITY PTCLDY    39  31  72 N8        30.32R WCI  33          
MANTEO         CLEAR     40  34  77 NE10      30.30R WCI  34          
CAPE HATTERAS  CLEAR     43  38  82 NE9       30.28R                  
$$
 
NCZ078-087-090-091-093-098-101-211400-
SOUTHEASTERN NORTH CAROLINA
  
CITY           SKY/WX    TMP DP  RH WIND       PRES   REMARKS
LUMBERTON      CLOUDY    39  34  82 NE9       30.28S WCI  33          
GOLDSBORO      CLOUDY    33  32  98 N1        30.30                   
KINSTON        CLEAR     30  30 100 N3        30.33R FOG              
KENANSVILLE    CLOUDY    34  33  97 CALM      30.32R                  
NEW BERN       MOCLDY    37  32  82 N7        30.31R WCI  32          
CHERRY POINT   MOCLDY    39  33  79 NE10      30.29S WCI  32          
BEAUFORT       CLOUDY    41  38  89 NE9       30.28R                  
JACKSONVILLE   CLOUDY    38  34  85 N8        30.30R WCI  32          
WILMINGTON     CLOUDY    38  34  85 N10       30.28R WCI  31          
$$


Return to Home page


Western Regional Climate Center, wrcc@dri.edu